Location: Dürabuch
(48.2640°N, 11.2185°E)
Time: 09:25:29
(UTC+00:00)

COBE Rocket - Pass Details

Date: 23 May 2024
Orbit: 678 x 776 km, 97.1° (Epoch: 15 June)

Event Time Altitude Azimuth Distance (km) Brightness Sun altitude
Rises 00:38:30 0° 16° (NNE) 3,129 8.9 -18.4°
Reaches altitude 10° 00:40:49 10° 22° (NNE) 2,219 7.7 -18.3°
Maximum altitude 00:45:34 52° 98° (E) 916 4.4 -18.0°
Enters shadow 00:48:21 24° 165° (SSE) 1,499 5.1 -17.8°
